Location: Debolt
(55.2626°N, 118.0981°W)
Time: 00:30:09
(UTC+00:00)

Oscar 11 - Pass Details

Date: 09 December 2023
Orbit: 603 x 617 km, 97.7° (Epoch: 23 February)

Event Time Altitude Azimuth Distance (km) Brightness Sun altitude
Rises 00:33:33 0° 223° (SW) 2,858 12.0 -9.1°
Maximum altitude 00:38:42 11° 277° (W) 1,874 10.5 -9.8°
Drops below altitude 10° 00:40:08 10° 296° (WNW) 1,974 10.2 -9.9°
Sets 00:43:54 0° 331° (NNW) 2,890 10.6 -10.4°
